Time,TemperatureF,DewpointF,PressureIn,WindDirection,WindDirectionDegrees,WindSpeedMPH,WindSpeedGustMPH,Humidity,HourlyPrecipIn,Conditions,Clouds,dailyrainin,SoftwareType,DateUTC
2013-10-24 00:01:00,30.7,19.6,30.11,NNE,28,2.0,3.0,63,0.00,,---,0.00,VWS V14.01,2013-10-24 05:01:00,
2013-10-24 00:06:00,30.7,20.0,30.11,NNE,25,1.0,5.0,64,0.00,,---,0.00,VWS V14.01,2013-10-24 05:06:00,
2013-10-24 00:11:00,30.7,19.6,30.11,NNE,24,0.0,4.0,63,0.00,,---,0.00,VWS V14.01,2013-10-24 05:11:00,
2013-10-24 00:16:00,30.7,20.0,30.11,North,0,6.0,6.0,64,0.00,,---,0.00,VWS V14.01,2013-10-24 05:16:00,
2013-10-24 00:21:00,30.9,19.8,30.11,NNE,13,1.0,4.0,63,0.00,,---,0.00,VWS V14.01,2013-10-24 05:21:00,
2013-10-24 00:26:00,31.0,19.9,30.11,North,11,5.0,6.0,63,0.00,,---,0.00,VWS V14.01,2013-10-24 05:26:00,
2013-10-24 00:31:00,31.0,20.3,30.11,North,11,2.0,3.0,64,0.00,,---,0.00,VWS V14.01,2013-10-24 05:31:00,
2013-10-24 00:36:00,30.9,20.2,30.11,NE,37,2.0,6.0,64,0.00,,---,0.00,VWS V14.01,2013-10-24 05:36:00,
2013-10-24 00:40:00,30.9,20.2,30.11,NNE,13,2.0,6.0,64,0.00,,---,0.00,VWS V14.01,2013-10-24 05:40:00,
2013-10-24 00:45:00,30.7,20.0,30.12,North,4,2.0,6.0,64,0.00,,---,0.00,VWS V14.01,2013-10-24 05:45:00,
2013-10-24 00:50:00,30.7,20.3,30.12,North,0,6.0,6.0,65,0.00,,---,0.00,VWS V14.01,2013-10-24 05:50:00,
2013-10-24 00:55:00,30.6,20.6,30.12,North,0,1.0,6.0,66,0.00,,---,0.00,VWS V14.01,2013-10-24 05:55:00,
2013-10-24 01:00:00,30.6,20.6,30.12,NNE,13,2.0,2.0,66,0.00,,---,0.00,VWS V14.01,2013-10-24 06:00:00,
2013-10-24 01:05:00,30.4,20.4,30.12,North,8,4.0,6.0,66,0.00,,---,0.00,VWS V14.01,2013-10-24 06:05:00,
2013-10-24 01:10:00,30.4,20.8,30.12,NNE,17,0.0,2.0,67,0.00,,---,0.00,VWS V14.01,2013-10-24 06:10:00,
2013-10-24 01:15:00,30.3,20.7,30.13,NNE,14,0.0,5.0,67,0.00,,---,0.00,VWS V14.01,2013-10-24 06:15:00,
2013-10-24 01:20:00,30.3,21.0,30.13,North,4,0.0,1.0,68,0.00,,---,0.00,VWS V14.01,2013-10-24 06:20:00,
2013-10-24 01:25:00,30.3,21.0,30.13,NNE,13,1.0,5.0,68,0.00,,---,0.00,VWS V14.01,2013-10-24 06:25:00,
2013-10-24 01:30:00,30.3,21.4,30.13,North,3,3.0,3.0,69,0.00,,---,0.00,VWS V14.01,2013-10-24 06:30:00,
2013-10-24 01:35:00,30.3,21.0,30.13,North,8,2.0,7.0,68,0.00,,---,0.00,VWS V14.01,2013-10-24 06:35:00,
2013-10-24 01:40:00,30.3,21.0,30.13,NNE,20,1.0,3.0,68,0.00,,---,0.00,VWS V14.01,2013-10-24 06:40:00,
2013-10-24 01:45:00,30.3,21.4,30.13,North,11,3.0,7.0,69,0.00,,---,0.00,VWS V14.01,2013-10-24 06:45:00,
2013-10-24 01:50:00,30.4,21.5,30.13,North,0,2.0,2.0,69,0.00,,---,0.00,VWS V14.01,2013-10-24 06:50:00,
2013-10-24 01:55:00,30.4,21.5,30.13,North,4,4.0,6.0,69,0.00,,---,0.00,VWS V14.01,2013-10-24 06:55:00,
2013-10-24 02:00:00,30.4,21.5,30.13,NNE,16,1.0,4.0,69,0.00,,---,0.00,VWS V14.01,2013-10-24 07:00:00,
2013-10-24 02:05:00,30.3,21.7,30.13,North,0,2.0,7.0,70,0.00,,---,0.00,VWS V14.01,2013-10-24 07:05:00,
2013-10-24 02:10:00,30.1,21.5,30.13,North,7,3.0,5.0,70,0.00,,---,0.00,VWS V14.01,2013-10-24 07:10:00,
2013-10-24 02:15:00,30.0,21.8,30.13,North,0,3.0,8.0,71,0.00,,---,0.00,VWS V14.01,2013-10-24 07:15:00,
2013-10-24 02:20:00,29.8,21.6,30.13,North,0,3.0,5.0,71,0.00,,---,0.00,VWS V14.01,2013-10-24 07:20:00,
2013-10-24 02:25:00,29.5,21.6,30.13,North,7,2.0,5.0,72,0.00,,---,0.00,VWS V14.01,2013-10-24 07:25:00,
2013-10-24 02:30:00,29.4,21.8,30.13,North,0,5.0,6.0,73,0.00,,---,0.00,VWS V14.01,2013-10-24 07:30:00,
2013-10-24 02:35:00,29.3,21.7,30.13,North,0,1.0,6.0,73,0.00,,---,0.00,VWS V14.01,2013-10-24 07:35:00,
2013-10-24 02:40:00,29.1,21.9,30.13,NNE,13,2.0,2.0,74,0.00,,---,0.00,VWS V14.01,2013-10-24 07:40:00,
2013-10-24 02:45:00,28.8,21.9,30.14,North,359,0.0,4.0,75,0.00,,---,0.00,VWS V14.01,2013-10-24 07:45:00,
2013-10-24 02:50:00,28.7,22.1,30.14,North,0,1.0,1.0,76,0.00,,---,0.00,VWS V14.01,2013-10-24 07:50:00,
2013-10-24 02:55:00,28.5,21.9,30.14,North,359,3.0,6.0,76,0.00,,---,0.00,VWS V14.01,2013-10-24 07:55:00,
2013-10-24 03:00:00,28.4,22.4,30.14,NNW,343,4.0,4.0,78,0.00,,---,0.00,VWS V14.01,2013-10-24 08:00:00,
2013-10-24 03:05:00,28.2,22.2,30.14,North,6,1.0,6.0,78,0.00,,---,0.00,VWS V14.01,2013-10-24 08:05:00,
2013-10-24 03:10:00,28.1,22.4,30.14,North,1,1.0,1.0,79,0.00,,---,0.00,VWS V14.01,2013-10-24 08:10:00,
2013-10-24 03:15:00,27.8,22.1,30.14,North,352,6.0,6.0,79,0.00,,---,0.00,VWS V14.01,2013-10-24 08:15:00,
2013-10-24 03:20:00,27.8,22.4,30.14,NNE,23,2.0,2.0,80,0.00,,---,0.00,VWS V14.01,2013-10-24 08:20:00,
2013-10-24 03:25:00,27.8,22.7,30.14,North,0,2.0,5.0,81,0.00,,---,0.00,VWS V14.01,2013-10-24 08:25:00,
2013-10-24 03:30:00,27.6,22.5,30.14,NNW,342,4.0,6.0,81,0.00,,---,0.00,VWS V14.01,2013-10-24 08:30:00,
2013-10-24 03:35:00,27.6,22.8,30.14,North,1,4.0,7.0,82,0.00,,---,0.00,VWS V14.01,2013-10-24 08:35:00,
2013-10-24 03:40:00,27.5,22.7,30.14,North,0,3.0,7.0,82,0.00,,---,0.00,VWS V14.01,2013-10-24 08:40:00,
2013-10-24 03:45:00,27.6,23.1,30.14,North,356,1.0,8.0,83,0.00,,---,0.00,VWS V14.01,2013-10-24 08:45:00,
2013-10-24 03:50:00,27.6,23.1,30.14,North,350,1.0,8.0,83,0.00,,---,0.00,VWS V14.01,2013-10-24 08:50:00,
2013-10-24 03:55:00,27.8,23.6,30.14,NNE,17,1.0,8.0,84,0.00,,---,0.00,VWS V14.01,2013-10-24 08:55:00,
2013-10-24 04:00:00,27.9,23.7,30.15,North,10,2.0,8.0,84,0.00,,---,0.00,VWS V14.01,2013-10-24 09:00:00,
2013-10-24 04:05:00,27.9,23.7,30.15,North,0,0.0,5.0,84,0.00,,---,0.00,VWS V14.01,2013-10-24 09:05:00,
2013-10-24 04:10:00,27.9,24.0,30.15,North,359,2.0,7.0,85,0.00,,---,0.00,VWS V14.01,2013-10-24 09:10:00,
2013-10-24 04:15:00,28.1,24.2,30.15,North,359,1.0,5.0,85,0.00,,---,0.00,VWS V14.01,2013-10-24 09:15:00,
2013-10-24 04:20:00,28.1,24.2,30.15,North,0,0.0,6.0,85,0.00,,---,0.00,VWS V14.01,2013-10-24 09:20:00,
2013-10-24 04:25:00,28.2,24.6,30.15,North,0,3.0,6.0,86,0.00,,---,0.00,VWS V14.01,2013-10-24 09:25:00,
2013-10-24 04:30:00,28.2,24.6,30.15,North,359,0.0,6.0,86,0.00,,---,0.00,VWS V14.01,2013-10-24 09:30:00,
2013-10-24 04:35:00,28.2,24.8,30.15,North,354,1.0,5.0,87,0.00,,---,0.00,VWS V14.01,2013-10-24 09:35:00,
2013-10-24 04:40:00,28.1,24.7,30.15,North,359,0.0,5.0,87,0.00,,---,0.00,VWS V14.01,2013-10-24 09:40:00,
2013-10-24 04:45:00,28.1,24.7,30.15,North,0,0.0,5.0,87,0.00,,---,0.00,VWS V14.01,2013-10-24 09:45:00,
2013-10-24 04:50:00,28.1,25.0,30.15,North,359,2.0,7.0,88,0.00,,---,0.00,VWS V14.01,2013-10-24 09:50:00,
2013-10-24 04:55:00,28.4,25.3,30.15,North,4,3.0,7.0,88,0.00,,---,0.00,VWS V14.01,2013-10-24 09:55:00,
2013-10-24 05:00:00,28.7,25.9,30.15,North,0,2.0,7.0,89,0.00,,---,0.00,VWS V14.01,2013-10-24 10:00:00,
2013-10-24 05:05:00,28.8,26.0,30.15,North,350,1.0,6.0,89,0.00,,---,0.00,VWS V14.01,2013-10-24 10:05:00,
2013-10-24 05:10:00,29.0,26.2,30.15,North,359,1.0,7.0,89,0.00,,---,0.00,VWS V14.01,2013-10-24 10:10:00,
2013-10-24 05:15:00,29.3,26.5,30.15,North,359,1.0,7.0,89,0.00,,---,0.00,VWS V14.01,2013-10-24 10:15:00,
2013-10-24 05:20:00,29.3,26.7,30.15,NNE,13,3.0,8.0,90,0.00,,---,0.00,VWS V14.01,2013-10-24 10:20:00,
2013-10-24 05:25:00,29.4,26.8,30.15,North,0,1.0,6.0,90,0.00,,---,0.00,VWS V14.01,2013-10-24 10:25:00,
2013-10-24 05:30:00,29.5,26.9,30.16,North,354,3.0,7.0,90,0.00,,---,0.00,VWS V14.01,2013-10-24 10:30:00,
2013-10-24 05:35:00,29.7,27.1,30.16,North,6,7.0,12.0,90,0.00,,---,0.00,VWS V14.01,2013-10-24 10:35:00,
2013-10-24 05:40:00,29.7,27.1,30.16,North,359,2.0,12.0,90,0.00,,---,0.00,VWS V14.01,2013-10-24 10:40:00,
2013-10-24 05:45:00,29.7,27.1,30.17,North,356,2.0,8.0,90,0.00,,---,0.00,VWS V14.01,2013-10-24 10:45:00,
2013-10-24 05:50:00,29.8,27.5,30.17,North,350,3.0,8.0,91,0.00,,---,0.00,VWS V14.01,2013-10-24 10:50:00,
2013-10-24 05:55:00,30.0,27.7,30.17,NNW,346,6.0,6.0,91,0.00,,---,0.00,VWS V14.01,2013-10-24 10:55:00,
2013-10-24 06:00:00,30.1,27.8,30.17,North,0,3.0,6.0,91,0.00,,---,0.00,VWS V14.01,2013-10-24 11:00:00,
2013-10-24 06:05:00,30.3,28.3,30.17,North,0,4.0,6.0,92,0.00,,---,0.00,VWS V14.01,2013-10-24 11:05:00,
2013-10-24 06:10:00,30.4,28.4,30.17,North,4,2.0,6.0,92,0.00,,---,0.00,VWS V14.01,2013-10-24 11:10:00,
2013-10-24 06:15:00,30.6,28.6,30.17,North,3,2.0,7.0,92,0.00,,---,0.00,VWS V14.01,2013-10-24 11:15:00,
2013-10-24 06:20:00,30.6,28.6,30.17,North,349,3.0,7.0,92,0.00,,---,0.00,VWS V14.01,2013-10-24 11:20:00,
2013-10-24 06:25:00,30.7,28.7,30.17,North,357,1.0,6.0,92,0.00,,---,0.00,VWS V14.01,2013-10-24 11:25:00,
2013-10-24 06:30:00,30.7,28.7,30.18,NNE,14,1.0,7.0,92,0.00,,---,0.00,VWS V14.01,2013-10-24 11:30:00,
2013-10-24 06:35:00,30.9,28.9,30.18,NNE,17,3.0,8.0,92,0.00,,---,0.00,VWS V14.01,2013-10-24 11:35:00,
2013-10-24 06:40:00,30.7,28.7,30.18,North,6,1.0,8.0,92,0.00,,---,0.00,VWS V14.01,2013-10-24 11:40:00,
2013-10-24 06:44:00,30.6,28.6,30.17,North,8,1.0,5.0,92,0.00,,---,0.00,VWS V14.01,2013-10-24 11:44:00,
2013-10-24 06:49:00,30.6,28.6,30.17,North,359,0.0,7.0,92,0.00,,---,0.00,VWS V14.01,2013-10-24 11:49:00,
2013-10-24 06:54:00,30.6,28.6,30.17,NNW,335,6.0,7.0,92,0.00,,---,0.00,VWS V14.01,2013-10-24 11:54:00,
2013-10-24 06:59:00,30.6,28.8,30.18,NNE,18,2.0,7.0,93,0.00,,---,0.00,VWS V14.01,2013-10-24 11:59:00,
2013-10-24 07:04:00,30.7,28.9,30.18,North,8,3.0,10.0,93,0.00,,---,0.00,VWS V14.01,2013-10-24 12:04:00,
2013-10-24 07:09:00,30.7,28.9,30.18,North,3,5.0,10.0,93,0.00,,---,0.00,VWS V14.01,2013-10-24 12:09:00,
2013-10-24 07:14:00,30.7,28.9,30.18,NNE,14,2.0,6.0,93,0.00,,---,0.00,VWS V14.01,2013-10-24 12:14:00,
2013-10-24 07:19:00,30.7,28.9,30.18,North,4,2.0,6.0,93,0.00,,---,0.00,VWS V14.01,2013-10-24 12:19:00,
2013-10-24 07:24:00,30.7,28.9,30.18,North,359,0.0,6.0,93,0.00,,---,0.00,VWS V14.01,2013-10-24 12:24:00,
2013-10-24 07:29:00,30.7,28.9,30.18,North,0,0.0,6.0,93,0.00,,---,0.00,VWS V14.01,2013-10-24 12:29:00,
2013-10-24 07:34:00,30.7,28.9,30.18,North,7,1.0,5.0,93,0.00,,---,0.00,VWS V14.01,2013-10-24 12:34:00,
2013-10-24 07:39:00,30.6,28.8,30.18,North,6,0.0,5.0,93,0.00,,---,0.00,VWS V14.01,2013-10-24 12:39:00,
2013-10-24 07:44:00,30.3,28.5,30.19,North,352,1.0,5.0,93,0.00,,---,0.00,VWS V14.01,2013-10-24 12:44:00,
2013-10-24 07:49:00,30.3,28.8,30.19,North,359,1.0,6.0,94,0.00,,---,0.00,VWS V14.01,2013-10-24 12:49:00,
2013-10-24 07:54:00,30.3,28.8,30.19,North,4,1.0,5.0,94,0.00,,---,0.00,VWS V14.01,2013-10-24 12:54:00,
2013-10-24 07:59:00,30.1,28.6,30.20,North,0,5.0,6.0,94,0.00,,---,0.00,VWS V14.01,2013-10-24 12:59:00,
2013-10-24 08:04:00,30.1,28.6,30.20,North,1,3.0,6.0,94,0.00,,---,0.00,VWS V14.01,2013-10-24 13:04:00,
2013-10-24 08:09:00,30.1,28.6,30.20,North,1,2.0,8.0,94,0.00,,---,0.00,VWS V14.01,2013-10-24 13:09:00,
2013-10-24 08:14:00,30.1,28.6,30.20,North,0,2.0,6.0,94,0.00,,---,0.00,VWS V14.01,2013-10-24 13:14:00,
2013-10-24 08:19:00,30.0,28.7,30.20,North,0,0.0,6.0,95,0.00,,---,0.00,VWS V14.01,2013-10-24 13:19:00,
2013-10-24 08:24:00,30.0,28.7,30.20,North,354,5.0,6.0,95,0.00,,---,0.00,VWS V14.01,2013-10-24 13:24:00,
2013-10-24 08:29:00,30.0,28.7,30.20,NNE,18,4.0,7.0,95,0.00,,---,0.00,VWS V14.01,2013-10-24 13:29:00,
2013-10-24 08:34:00,30.3,29.0,30.20,North,359,1.0,5.0,95,0.00,,---,0.00,VWS V14.01,2013-10-24 13:34:00,
2013-10-24 08:39:00,30.6,29.3,30.20,North,359,2.0,6.0,95,0.00,,---,0.00,VWS V14.01,2013-10-24 13:39:00,
2013-10-24 08:44:00,30.6,29.1,30.21,NNW,339,8.0,9.0,94,0.00,,---,0.00,VWS V14.01,2013-10-24 13:44:00,
2013-10-24 08:49:00,30.7,29.2,30.21,North,1,2.0,11.0,94,0.00,,---,0.00,VWS V14.01,2013-10-24 13:49:00,
2013-10-24 08:54:00,31.2,29.7,30.21,North,0,2.0,6.0,94,0.00,,---,0.00,VWS V14.01,2013-10-24 13:54:00,
2013-10-24 08:59:00,31.9,30.4,30.21,NNW,347,4.0,8.0,94,0.00,,---,0.00,VWS V14.01,2013-10-24 13:59:00,
2013-10-24 09:04:00,32.4,30.3,30.21,NNE,13,1.0,7.0,92,0.00,,---,0.00,VWS V14.01,2013-10-24 14:04:00,
2013-10-24 09:09:00,32.8,30.5,30.21,North,4,6.0,8.0,91,0.00,,---,0.00,VWS V14.01,2013-10-24 14:09:00,
2013-10-24 09:14:00,33.2,30.6,30.21,NNW,332,0.0,8.0,90,0.00,,---,0.00,VWS V14.01,2013-10-24 14:14:00,
2013-10-24 09:19:00,33.4,30.5,30.21,NNW,337,6.0,8.0,89,0.00,,---,0.00,VWS V14.01,2013-10-24 14:19:00,
2013-10-24 09:24:00,33.5,30.0,30.21,North,0,2.0,6.0,87,0.00,,---,0.00,VWS V14.01,2013-10-24 14:24:00,
2013-10-24 09:29:00,33.7,30.2,30.21,NE,35,7.0,8.0,87,0.00,,---,0.00,VWS V14.01,2013-10-24 14:29:00,
2013-10-24 09:34:00,34.1,30.6,30.21,North,0,5.0,13.0,87,0.00,,---,0.00,VWS V14.01,2013-10-24 14:34:00,
2013-10-24 09:39:00,34.4,30.4,30.21,North,0,6.0,13.0,85,0.00,,---,0.00,VWS V14.01,2013-10-24 14:39:00,
2013-10-24 09:44:00,34.6,30.3,30.21,North,0,1.0,10.0,84,0.00,,---,0.00,VWS V14.01,2013-10-24 14:44:00,
2013-10-24 09:49:00,35.0,30.4,30.22,North,0,5.0,10.0,83,0.00,,---,0.00,VWS V14.01,2013-10-24 14:49:00,
2013-10-24 09:54:00,35.2,30.6,30.22,North,0,5.0,8.0,83,0.00,,---,0.00,VWS V14.01,2013-10-24 14:54:00,
2013-10-24 09:59:00,35.8,30.9,30.22,NNE,13,5.0,8.0,82,0.00,,---,0.00,VWS V14.01,2013-10-24 14:59:00,
2013-10-24 10:04:00,36.0,30.4,30.22,North,7,5.0,10.0,80,0.00,,---,0.00,VWS V14.01,2013-10-24 15:04:00,
2013-10-24 10:09:00,36.5,30.9,30.22,NNE,20,5.0,10.0,80,0.00,,---,0.00,VWS V14.01,2013-10-24 15:09:00,
2013-10-24 10:14:00,36.8,30.9,30.22,North,0,6.0,8.0,79,0.00,,---,0.00,VWS V14.01,2013-10-24 15:14:00,
2013-10-24 10:19:00,37.2,31.0,30.22,NE,40,7.0,9.0,78,0.00,,---,0.00,VWS V14.01,2013-10-24 15:19:00,
2013-10-24 10:24:00,37.6,31.1,30.22,NE,35,2.0,6.0,77,0.00,,---,0.00,VWS V14.01,2013-10-24 15:24:00,
2013-10-24 10:29:00,38.0,30.8,30.22,NNE,24,5.0,10.0,75,0.00,,---,0.00,VWS V14.01,2013-10-24 15:29:00,
2013-10-24 10:34:00,38.2,30.7,30.22,NNE,18,5.0,10.0,74,0.00,,---,0.00,VWS V14.01,2013-10-24 15:34:00,
2013-10-24 10:39:00,38.8,31.6,30.22,NNE,23,0.0,11.0,75,0.00,,---,0.00,VWS V14.01,2013-10-24 15:39:00,
2013-10-24 10:44:00,39.1,30.9,30.22,North,1,4.0,10.0,72,0.00,,---,0.00,VWS V14.01,2013-10-24 15:44:00,
2013-10-24 10:49:00,39.6,31.0,30.22,North,6,3.0,10.0,71,0.00,,---,0.00,VWS V14.01,2013-10-24 15:49:00,
2013-10-24 10:54:00,40.2,30.5,30.22,NE,35,7.0,7.0,68,0.00,,---,0.00,VWS V14.01,2013-10-24 15:54:00,
2013-10-24 10:59:00,39.8,30.1,30.22,NNE,30,2.0,12.0,68,0.00,,---,0.00,VWS V14.01,2013-10-24 15:59:00,
2013-10-24 11:04:00,40.3,30.2,30.22,NE,34,1.0,7.0,67,0.00,,---,0.00,VWS V14.01,2013-10-24 16:04:00,
2013-10-24 11:09:00,40.9,30.4,30.22,North,11,7.0,10.0,66,0.00,,---,0.00,VWS V14.01,2013-10-24 16:09:00,
2013-10-24 11:14:00,40.8,29.6,30.22,NNE,28,10.0,11.0,64,0.00,,---,0.00,VWS V14.01,2013-10-24 16:14:00,
2013-10-24 11:19:00,40.8,29.2,30.23,NNE,20,8.0,13.0,63,0.00,,---,0.00,VWS V14.01,2013-10-24 16:19:00,
2013-10-24 11:24:00,40.2,29.4,30.23,North,0,8.0,10.0,65,0.00,,---,0.00,VWS V14.01,2013-10-24 16:24:00,
2013-10-24 11:29:00,39.8,28.6,30.23,NNE,28,5.0,11.0,64,0.00,,---,0.00,VWS V14.01,2013-10-24 16:29:00,
2013-10-24 11:34:00,39.9,29.1,30.24,NNW,347,4.0,11.0,65,0.00,,---,0.00,VWS V14.01,2013-10-24 16:34:00,
2013-10-24 11:39:00,39.3,29.3,30.24,NNE,13,6.0,11.0,67,0.00,,---,0.00,VWS V14.01,2013-10-24 16:39:00,
2013-10-24 11:44:00,39.2,29.5,30.24,NNE,14,7.0,7.0,68,0.00,,---,0.00,VWS V14.01,2013-10-24 16:44:00,
2013-10-24 11:49:00,39.2,29.2,30.24,NE,34,6.0,11.0,67,0.00,,---,0.00,VWS V14.01,2013-10-24 16:49:00,
2013-10-24 11:54:00,39.2,29.5,30.24,NE,56,2.0,11.0,68,0.00,,---,0.00,VWS V14.01,2013-10-24 16:54:00,
2013-10-24 11:59:00,39.5,29.8,30.24,NNE,18,5.0,11.0,68,0.00,,---,0.00,VWS V14.01,2013-10-24 16:59:00,
2013-10-24 12:04:00,39.2,29.5,30.24,North,359,6.0,9.0,68,0.00,,---,0.00,VWS V14.01,2013-10-24 17:04:00,
2013-10-24 12:09:00,38.9,29.6,30.24,North,0,7.0,11.0,69,0.00,,---,0.00,VWS V14.01,2013-10-24 17:09:00,
2013-10-24 12:14:00,38.8,29.5,30.24,NNE,23,0.0,10.0,69,0.00,,---,0.00,VWS V14.01,2013-10-24 17:14:00,
2013-10-24 12:19:00,39.2,29.9,30.24,North,352,6.0,10.0,69,0.00,,---,0.00,VWS V14.01,2013-10-24 17:19:00,
2013-10-24 12:24:00,39.5,29.8,30.24,NNE,24,2.0,7.0,68,0.00,,---,0.00,VWS V14.01,2013-10-24 17:24:00,
2013-10-24 12:29:00,39.6,29.2,30.24,NE,41,5.0,10.0,66,0.00,,---,0.00,VWS V14.01,2013-10-24 17:29:00,
2013-10-24 12:34:00,39.6,28.8,30.24,NE,52,5.0,9.0,65,0.00,,---,0.00,VWS V14.01,2013-10-24 17:34:00,
2013-10-24 12:39:00,39.3,28.2,30.24,North,6,3.0,11.0,64,0.00,,---,0.00,VWS V14.01,2013-10-24 17:39:00,
2013-10-24 12:44:00,39.1,28.7,30.24,NNE,16,6.0,10.0,66,0.00,,---,0.00,VWS V14.01,2013-10-24 17:44:00,
2013-10-24 12:48:00,38.9,28.9,30.24,North,359,5.0,10.0,67,0.00,,---,0.00,VWS V14.01,2013-10-24 17:48:00,
2013-10-24 12:53:00,38.8,29.5,30.24,NNW,339,7.0,8.0,69,0.00,,---,0.00,VWS V14.01,2013-10-24 17:53:00,
2013-10-24 12:58:00,38.9,29.6,30.24,NNE,24,5.0,8.0,69,0.00,,---,0.00,VWS V14.01,2013-10-24 17:58:00,
2013-10-24 13:03:00,38.9,29.6,30.24,North,6,3.0,10.0,69,0.00,,---,0.00,VWS V14.01,2013-10-24 18:03:00,
2013-10-24 13:08:00,39.2,29.5,30.24,North,0,5.0,10.0,68,0.00,,---,0.00,VWS V14.01,2013-10-24 18:08:00,
2013-10-24 13:13:00,39.2,29.5,30.24,North,0,7.0,7.0,68,0.00,,---,0.00,VWS V14.01,2013-10-24 18:13:00,
2013-10-24 13:18:00,39.2,29.5,30.24,NNE,28,7.0,11.0,68,0.00,,---,0.00,VWS V14.01,2013-10-24 18:18:00,
2013-10-24 13:23:00,39.2,29.5,30.24,NNE,18,3.0,9.0,68,0.00,,---,0.00,VWS V14.01,2013-10-24 18:23:00,
2013-10-24 13:28:00,39.3,29.6,30.24,NE,47,4.0,11.0,68,0.00,,---,0.00,VWS V14.01,2013-10-24 18:28:00,
2013-10-24 13:33:00,39.8,30.1,30.24,North,3,6.0,10.0,68,0.00,,---,0.00,VWS V14.01,2013-10-24 18:33:00,
2013-10-24 13:38:00,39.8,29.8,30.24,North,0,3.0,10.0,67,0.00,,---,0.00,VWS V14.01,2013-10-24 18:38:00,
2013-10-24 13:43:00,39.9,30.2,30.24,NNE,16,1.0,7.0,68,0.00,,---,0.00,VWS V14.01,2013-10-24 18:43:00,
2013-10-24 13:48:00,40.2,30.5,30.24,NNE,27,2.0,7.0,68,0.00,,---,0.00,VWS V14.01,2013-10-24 18:48:00,
2013-10-24 13:53:00,40.3,30.6,30.24,NNE,24,1.0,9.0,68,0.00,,---,0.00,VWS V14.01,2013-10-24 18:53:00,
2013-10-24 13:58:00,41.5,31.0,30.24,North,11,2.0,9.0,66,0.00,,---,0.00,VWS V14.01,2013-10-24 18:58:00,
2013-10-24 14:03:00,41.5,30.2,30.23,North,4,3.0,11.0,64,0.00,,---,0.00,VWS V14.01,2013-10-24 19:03:00,
2013-10-24 14:08:00,41.1,29.9,30.23,NNE,20,4.0,11.0,64,0.00,,---,0.00,VWS V14.01,2013-10-24 19:08:00,
2013-10-24 14:13:00,41.6,29.6,30.23,NNE,18,3.0,10.0,62,0.00,,---,0.00,VWS V14.01,2013-10-24 19:13:00,
2013-10-24 14:18:00,42.9,30.4,30.23,NNW,336,2.0,11.0,61,0.00,,---,0.00,VWS V14.01,2013-10-24 19:18:00,
2013-10-24 14:23:00,43.1,30.2,30.23,NNW,332,7.0,10.0,60,0.00,,---,0.00,VWS V14.01,2013-10-24 19:23:00,
2013-10-24 14:28:00,42.3,29.4,30.23,North,10,3.0,10.0,60,0.00,,---,0.00,VWS V14.01,2013-10-24 19:28:00,
2013-10-24 14:33:00,41.9,29.5,30.23,NNE,30,6.0,7.0,61,0.00,,---,0.00,VWS V14.01,2013-10-24 19:33:00,
2013-10-24 14:38:00,41.6,29.2,30.23,NE,37,5.0,10.0,61,0.00,,---,0.00,VWS V14.01,2013-10-24 19:38:00,
2013-10-24 14:43:00,41.3,28.5,30.23,North,11,1.0,7.0,60,0.00,,---,0.00,VWS V14.01,2013-10-24 19:43:00,
2013-10-24 14:48:00,41.5,29.1,30.23,NNE,25,5.0,8.0,61,0.00,,---,0.00,VWS V14.01,2013-10-24 19:48:00,
2013-10-24 14:53:00,41.9,29.0,30.23,NNE,18,6.0,8.0,60,0.00,,---,0.00,VWS V14.01,2013-10-24 19:53:00,
2013-10-24 14:58:00,42.1,28.4,30.23,North,4,2.0,11.0,58,0.00,,---,0.00,VWS V14.01,2013-10-24 19:58:00,
2013-10-24 15:03:00,41.8,28.1,30.23,North,357,2.0,12.0,58,0.00,,---,0.00,VWS V14.01,2013-10-24 20:03:00,
2013-10-24 15:08:00,41.5,28.3,30.23,NE,35,2.0,12.0,59,0.00,,---,0.00,VWS V14.01,2013-10-24 20:08:00,
2013-10-24 15:13:00,41.5,27.8,30.23,North,0,6.0,12.0,58,0.00,,---,0.00,VWS V14.01,2013-10-24 20:13:00,
2013-10-24 15:18:00,41.5,27.8,30.23,NNE,17,2.0,12.0,58,0.00,,---,0.00,VWS V14.01,2013-10-24 20:18:00,
2013-10-24 15:23:00,41.5,27.4,30.23,North,4,3.0,7.0,57,0.00,,---,0.00,VWS V14.01,2013-10-24 20:23:00,
2013-10-24 15:28:00,41.3,28.1,30.23,NE,41,0.0,8.0,59,0.00,,---,0.00,VWS V14.01,2013-10-24 20:28:00,
2013-10-24 15:33:00,41.2,26.7,30.24,NNE,17,4.0,8.0,56,0.00,,---,0.00,VWS V14.01,2013-10-24 20:33:00,
2013-10-24 15:38:00,41.2,27.1,30.24,North,6,2.0,8.0,57,0.00,,---,0.00,VWS V14.01,2013-10-24 20:38:00,
2013-10-24 15:43:00,41.1,27.9,30.24,North,354,2.0,8.0,59,0.00,,---,0.00,VWS V14.01,2013-10-24 20:43:00,
2013-10-24 15:48:00,40.8,28.0,30.24,North,356,1.0,12.0,60,0.00,,---,0.00,VWS V14.01,2013-10-24 20:48:00,
2013-10-24 15:53:00,40.6,28.2,30.24,North,359,8.0,9.0,61,0.00,,---,0.00,VWS V14.01,2013-10-24 20:53:00,
2013-10-24 15:58:00,40.5,28.1,30.24,NNE,18,5.0,12.0,61,0.00,,---,0.00,VWS V14.01,2013-10-24 20:58:00,
2013-10-24 16:03:00,40.6,28.2,30.24,NNE,16,3.0,6.0,61,0.00,,---,0.00,VWS V14.01,2013-10-24 21:03:00,
2013-10-24 16:08:00,40.5,28.1,30.24,North,0,5.0,7.0,61,0.00,,---,0.00,VWS V14.01,2013-10-24 21:08:00,
2013-10-24 16:13:00,40.5,28.1,30.24,North,0,5.0,5.0,61,0.00,,---,0.00,VWS V14.01,2013-10-24 21:13:00,
2013-10-24 16:18:00,40.5,28.5,30.24,North,10,3.0,7.0,62,0.00,,---,0.00,VWS V14.01,2013-10-24 21:18:00,
2013-10-24 16:23:00,40.3,27.9,30.24,North,4,4.0,7.0,61,0.00,,---,0.00,VWS V14.01,2013-10-24 21:23:00,
2013-10-24 16:28:00,40.2,28.2,30.24,North,6,3.0,7.0,62,0.00,,---,0.00,VWS V14.01,2013-10-24 21:28:00,
2013-10-24 16:33:00,40.2,28.2,30.24,North,359,3.0,8.0,62,0.00,,---,0.00,VWS V14.01,2013-10-24 21:33:00,
2013-10-24 16:38:00,40.1,28.1,30.24,North,0,4.0,8.0,62,0.00,,---,0.00,VWS V14.01,2013-10-24 21:38:00,
2013-10-24 16:43:00,40.1,29.3,30.24,North,10,2.0,7.0,65,0.00,,---,0.00,VWS V14.01,2013-10-24 21:43:00,
2013-10-24 16:48:00,39.9,29.1,30.24,North,3,1.0,7.0,65,0.00,,---,0.00,VWS V14.01,2013-10-24 21:48:00,
2013-10-24 16:53:00,39.9,29.5,30.24,North,1,1.0,7.0,66,0.00,,---,0.00,VWS V14.01,2013-10-24 21:53:00,
2013-10-24 16:58:00,39.8,29.4,30.24,NNW,329,5.0,8.0,66,0.00,,---,0.00,VWS V14.01,2013-10-24 21:58:00,
2013-10-24 17:03:00,39.6,29.2,30.24,NW,312,6.0,8.0,66,0.00,,---,0.00,VWS V14.01,2013-10-24 22:03:00,
2013-10-24 17:08:00,39.6,29.6,30.24,North,8,2.0,8.0,67,0.00,,---,0.00,VWS V14.01,2013-10-24 22:08:00,
2013-10-24 17:13:00,39.6,29.6,30.24,NNW,335,2.0,6.0,67,0.00,,---,0.00,VWS V14.01,2013-10-24 22:13:00,
2013-10-24 17:18:00,39.6,29.6,30.24,North,8,3.0,6.0,67,0.00,,---,0.00,VWS V14.01,2013-10-24 22:18:00,
2013-10-24 17:23:00,39.6,29.6,30.24,NNW,344,2.0,9.0,67,0.00,,---,0.00,VWS V14.01,2013-10-24 22:23:00,
2013-10-24 17:28:00,39.6,30.3,30.24,WNW,296,3.0,9.0,69,0.00,,---,0.00,VWS V14.01,2013-10-24 22:28:00,
2013-10-24 17:33:00,39.5,30.5,30.24,North,0,6.0,7.0,70,0.00,,---,0.00,VWS V14.01,2013-10-24 22:33:00,
2013-10-24 17:38:00,39.3,30.4,30.24,North,0,3.0,7.0,70,0.00,,---,0.00,VWS V14.01,2013-10-24 22:38:00,
2013-10-24 17:43:00,39.2,29.9,30.24,North,359,1.0,6.0,69,0.00,,---,0.00,VWS V14.01,2013-10-24 22:43:00,
2013-10-24 17:48:00,39.2,29.9,30.25,North,0,5.0,6.0,69,0.00,,---,0.00,VWS V14.01,2013-10-24 22:48:00,
2013-10-24 17:53:00,39.1,30.2,30.25,North,6,7.0,11.0,70,0.00,,---,0.00,VWS V14.01,2013-10-24 22:53:00,
2013-10-24 17:58:00,38.8,30.6,30.25,NNW,333,5.0,11.0,72,0.00,,---,0.00,VWS V14.01,2013-10-24 22:58:00,
2013-10-24 18:03:00,38.6,30.7,30.25,North,349,2.0,8.0,73,0.00,,---,0.00,VWS V14.01,2013-10-24 23:03:00,
2013-10-24 18:08:00,38.5,31.3,30.25,NNW,328,2.0,8.0,75,0.00,,---,0.00,VWS V14.01,2013-10-24 23:08:00,
2013-10-24 18:13:00,38.3,31.1,30.25,North,8,2.0,5.0,75,0.00,,---,0.00,VWS V14.01,2013-10-24 23:13:00,
2013-10-24 18:18:00,38.3,31.1,30.25,North,0,2.0,7.0,75,0.00,,---,0.00,VWS V14.01,2013-10-24 23:18:00,
2013-10-24 18:23:00,38.3,31.4,30.25,North,10,3.0,5.0,76,0.00,,---,0.00,VWS V14.01,2013-10-24 23:23:00,
2013-10-24 18:28:00,38.2,31.3,30.25,North,356,3.0,8.0,76,0.00,,---,0.00,VWS V14.01,2013-10-24 23:28:00,
2013-10-24 18:33:00,38.2,31.6,30.26,North,0,7.0,8.0,77,0.00,,---,0.00,VWS V14.01,2013-10-24 23:33:00,
2013-10-24 18:38:00,38.0,30.8,30.26,North,6,7.0,8.0,75,0.00,,---,0.00,VWS V14.01,2013-10-24 23:38:00,
2013-10-24 18:43:00,38.0,30.8,30.26,North,0,6.0,10.0,75,0.00,,---,0.00,VWS V14.01,2013-10-24 23:43:00,
2013-10-24 18:48:00,37.9,30.4,30.26,North,0,6.0,10.0,74,0.00,,---,0.00,VWS V14.01,2013-10-24 23:48:00,
2013-10-24 18:53:00,37.9,30.7,30.26,North,356,4.0,7.0,75,0.00,,---,0.00,VWS V14.01,2013-10-24 23:53:00,
2013-10-24 18:58:00,37.8,30.6,30.26,North,0,3.0,8.0,75,0.00,,---,0.00,VWS V14.01,2013-10-24 23:58:00,
2013-10-24 19:03:00,37.8,30.6,30.26,North,0,5.0,6.0,75,0.00,,---,0.00,VWS V14.01,2013-10-25 00:03:00,
2013-10-24 19:08:00,37.6,30.4,30.26,North,0,1.0,6.0,75,0.00,,---,0.00,VWS V14.01,2013-10-25 00:08:00,
2013-10-24 19:13:00,37.6,30.4,30.26,North,359,3.0,4.0,75,0.00,,---,0.00,VWS V14.01,2013-10-25 00:13:00,
2013-10-24 19:18:00,37.5,30.6,30.26,North,359,0.0,5.0,76,0.00,,---,0.00,VWS V14.01,2013-10-25 00:18:00,
2013-10-24 19:23:00,37.5,30.6,30.26,North,359,2.0,3.0,76,0.00,,---,0.00,VWS V14.01,2013-10-25 00:23:00,
2013-10-24 19:28:00,37.3,30.4,30.26,North,357,3.0,6.0,76,0.00,,---,0.00,VWS V14.01,2013-10-25 00:28:00,
2013-10-24 19:33:00,37.3,30.4,30.27,North,0,2.0,3.0,76,0.00,,---,0.00,VWS V14.01,2013-10-25 00:33:00,
2013-10-24 19:38:00,37.2,30.7,30.27,North,359,3.0,4.0,77,0.00,,---,0.00,VWS V14.01,2013-10-25 00:38:00,
2013-10-24 19:43:00,37.2,30.7,30.27,North,359,2.0,6.0,77,0.00,,---,0.00,VWS V14.01,2013-10-25 00:43:00,
2013-10-24 19:48:00,37.2,30.7,30.27,North,0,1.0,6.0,77,0.00,,---,0.00,VWS V14.01,2013-10-25 00:48:00,
2013-10-24 19:53:00,37.2,30.7,30.27,North,0,1.0,3.0,77,0.00,,---,0.00,VWS V14.01,2013-10-25 00:53:00,
2013-10-24 19:58:00,37.2,30.4,30.27,North,0,1.0,5.0,76,0.00,,---,0.00,VWS V14.01,2013-10-25 00:58:00,
2013-10-24 20:03:00,37.2,30.4,30.27,North,0,1.0,5.0,76,0.00,,---,0.00,VWS V14.01,2013-10-25 01:03:00,
2013-10-24 20:08:00,37.2,30.4,30.27,North,0,0.0,5.0,76,0.00,,---,0.00,VWS V14.01,2013-10-25 01:08:00,
2013-10-24 20:13:00,37.0,30.5,30.27,North,0,0.0,3.0,77,0.00,,---,0.00,VWS V14.01,2013-10-25 01:13:00,
2013-10-24 20:18:00,37.0,30.1,30.27,North,0,1.0,6.0,76,0.00,,---,0.00,VWS V14.01,2013-10-25 01:18:00,
2013-10-24 20:23:00,36.9,30.0,30.27,North,0,2.0,4.0,76,0.00,,---,0.00,VWS V14.01,2013-10-25 01:23:00,
2013-10-24 20:28:00,37.0,30.1,30.27,North,1,1.0,6.0,76,0.00,,---,0.00,VWS V14.01,2013-10-25 01:28:00,
2013-10-24 20:33:00,37.0,29.8,30.27,North,359,1.0,3.0,75,0.00,,---,0.00,VWS V14.01,2013-10-25 01:33:00,
2013-10-24 20:38:00,37.0,30.1,30.27,North,6,3.0,7.0,76,0.00,,---,0.00,VWS V14.01,2013-10-25 01:38:00,
2013-10-24 20:43:00,36.9,30.0,30.27,North,0,1.0,2.0,76,0.00,,---,0.00,VWS V14.01,2013-10-25 01:43:00,
2013-10-24 20:48:00,36.9,30.0,30.27,North,0,3.0,5.0,76,0.00,,---,0.00,VWS V14.01,2013-10-25 01:48:00,
2013-10-24 20:53:00,36.9,30.4,30.27,North,359,5.0,5.0,77,0.00,,---,0.00,VWS V14.01,2013-10-25 01:53:00,
2013-10-24 20:58:00,36.8,30.3,30.27,North,0,1.0,5.0,77,0.00,,---,0.00,VWS V14.01,2013-10-25 01:58:00,
2013-10-24 21:03:00,36.8,30.3,30.27,North,0,2.0,3.0,77,0.00,,---,0.00,VWS V14.01,2013-10-25 02:03:00,
2013-10-24 21:08:00,36.8,30.3,30.27,North,352,2.0,6.0,77,0.00,,---,0.00,VWS V14.01,2013-10-25 02:08:00,
2013-10-24 21:13:00,36.8,30.0,30.27,North,0,1.0,3.0,76,0.00,,---,0.00,VWS V14.01,2013-10-25 02:13:00,
2013-10-24 21:18:00,36.8,30.3,30.26,North,0,3.0,5.0,77,0.00,,---,0.00,VWS V14.01,2013-10-25 02:18:00,
2013-10-24 21:23:00,36.8,30.3,30.26,North,7,1.0,3.0,77,0.00,,---,0.00,VWS V14.01,2013-10-25 02:23:00,
2013-10-24 21:28:00,36.6,30.1,30.26,North,0,0.0,5.0,77,0.00,,---,0.00,VWS V14.01,2013-10-25 02:28:00,
2013-10-24 21:33:00,36.6,30.1,30.27,North,0,2.0,2.0,77,0.00,,---,0.00,VWS V14.01,2013-10-25 02:33:00,
2013-10-24 21:38:00,36.6,30.1,30.27,North,0,0.0,2.0,77,0.00,,---,0.00,VWS V14.01,2013-10-25 02:38:00,
2013-10-24 21:43:00,36.5,30.3,30.27,North,0,2.0,2.0,78,0.00,,---,0.00,VWS V14.01,2013-10-25 02:43:00,
2013-10-24 21:48:00,36.3,30.1,30.27,North,0,4.0,6.0,78,0.00,,---,0.00,VWS V14.01,2013-10-25 02:48:00,
2013-10-24 21:53:00,36.3,30.1,30.27,North,359,2.0,3.0,78,0.00,,---,0.00,VWS V14.01,2013-10-25 02:53:00,
2013-10-24 21:58:00,36.3,30.1,30.27,North,359,1.0,3.0,78,0.00,,---,0.00,VWS V14.01,2013-10-25 02:58:00,
2013-10-24 22:03:00,36.2,30.0,30.27,North,349,2.0,2.0,78,0.00,,---,0.00,VWS V14.01,2013-10-25 03:03:00,
2013-10-24 22:08:00,36.2,30.0,30.27,NNW,347,0.0,2.0,78,0.00,,---,0.00,VWS V14.01,2013-10-25 03:08:00,
2013-10-24 22:13:00,36.0,30.1,30.27,NNW,347,0.0,1.0,79,0.00,,---,0.00,VWS V14.01,2013-10-25 03:13:00,
2013-10-24 22:18:00,35.9,30.3,30.27,NNW,347,0.0,1.0,80,0.00,,---,0.00,VWS V14.01,2013-10-25 03:18:00,
2013-10-24 22:23:00,35.6,30.0,30.27,NNW,347,0.0,0.0,80,0.00,,---,0.00,VWS V14.01,2013-10-25 03:23:00,
2013-10-24 22:28:00,35.6,30.4,30.27,North,352,0.0,1.0,81,0.00,,---,0.00,VWS V14.01,2013-10-25 03:28:00,
2013-10-24 22:33:00,35.5,30.3,30.27,North,350,0.0,1.0,81,0.00,,---,0.00,VWS V14.01,2013-10-25 03:33:00,
2013-10-24 22:38:00,35.5,30.3,30.27,North,352,0.0,1.0,81,0.00,,---,0.00,VWS V14.01,2013-10-25 03:38:00,
2013-10-24 22:43:00,35.5,30.3,30.27,North,352,0.0,1.0,81,0.00,,---,0.00,VWS V14.01,2013-10-25 03:43:00,
2013-10-24 22:48:00,35.3,30.1,30.28,North,352,0.0,1.0,81,0.00,,---,0.00,VWS V14.01,2013-10-25 03:48:00,
2013-10-24 22:53:00,35.3,30.4,30.28,North,352,1.0,1.0,82,0.00,,---,0.00,VWS V14.01,2013-10-25 03:53:00,
2013-10-24 22:58:00,35.3,30.4,30.28,North,354,0.0,2.0,82,0.00,,---,0.00,VWS V14.01,2013-10-25 03:58:00,
2013-10-24 23:01:00,35.3,30.4,30.28,North,354,0.0,0.0,82,0.00,,---,0.00,VWS V14.01,2013-10-25 04:01:00,
2013-10-24 23:06:00,35.2,30.3,30.28,North,354,0.0,1.0,82,0.00,,---,0.00,VWS V14.01,2013-10-25 04:06:00,
2013-10-24 23:11:00,35.2,30.3,30.28,North,354,0.0,0.0,82,0.00,,---,0.00,VWS V14.01,2013-10-25 04:11:00,
2013-10-24 23:16:00,35.0,30.4,30.28,North,354,1.0,1.0,83,0.00,,---,0.00,VWS V14.01,2013-10-25 04:16:00,
2013-10-24 23:21:00,35.0,30.4,30.28,North,353,1.0,1.0,83,0.00,,---,0.00,VWS V14.01,2013-10-25 04:21:00,
2013-10-24 23:26:00,35.0,30.4,30.28,North,353,0.0,1.0,83,0.00,,---,0.00,VWS V14.01,2013-10-25 04:26:00,
2013-10-24 23:31:00,35.0,30.4,30.28,North,353,0.0,1.0,83,0.00,,---,0.00,VWS V14.01,2013-10-25 04:31:00,
2013-10-24 23:36:00,34.9,30.3,30.28,North,353,0.0,1.0,83,0.00,,---,0.00,VWS V14.01,2013-10-25 04:36:00,
2013-10-24 23:41:00,34.7,30.4,30.28,North,353,0.0,0.0,84,0.00,,---,0.00,VWS V14.01,2013-10-25 04:41:00,
2013-10-24 23:46:00,34.6,30.3,30.28,North,353,0.0,1.0,84,0.00,,---,0.00,VWS V14.01,2013-10-25 04:46:00,
2013-10-24 23:51:00,34.4,30.4,30.28,North,353,0.0,1.0,85,0.00,,---,0.00,VWS V14.01,2013-10-25 04:51:00,
2013-10-24 23:56:00,34.3,30.3,30.28,North,353,0.0,1.0,85,0.00,,---,0.00,VWS V14.01,2013-10-25 04:56:00,